Weather History for Lamoni, IA

Change the Weather History Date:

Monday, April 1, 2013

  Actual Average Record
Temperature  
Mean Temperature 32 °F 47 °F  
Max Temperature 42 °F 57 °F 83 °F (2012)
Min Temperature 22 °F 36 °F 22 °F (2013)
Degree Days  
Heating Degree Days 33 18  
Month to date heating degree days 33 18  
Since 1 July heating degree days 5394 5507  
Cooling Degree Days 0 0  
Month to date cooling degree days 0 0  
Year to date cooling degree days 0 1  
Moisture  
Dew Point 21 °F    
Average Humidity 59    
Maximum Humidity 85    
Minimum Humidity 32    
Precipitation  
Precipitation T in 0.07 in 1.26 in (1967)
Month to date precipitation T 0.07  
Sea Level Pressure  
Sea Level Pressure 30.21 in    
Wind  
Wind Speed 10 mph (North)    
Max Wind Speed 20 mph    
Max Gust Speed 24 mph    
Visibility 8 miles    
Events Snow    
T = Trace of Precipitation, MM = Missing Value Source: NWS Daily Summary

Daily Weather History Graph

Daily Weather History Graph

Search for Another Location

Airport:

Trip Planner

Search our weather history database for the weather conditions in past years. The results will help you decide how hot, cold, wet, or windy it might be!

Date:

Astronomy

Apr. 01, 2013 Rise Set
Actual Time 6:58 AM CDT 7:40 PM CDT
Civil Twilight 6:31 AM CDT 8:08 PM CDT
Nautical Twilight 5:58 AM CDT 8:40 PM CDT
Astronomical Twilight 5:24 AM CDT 9:14 PM CDT
Moon 12:50 AM CDT (4/1) 10:45 AM CDT (4/1)
Length of Visible Light 13h 37m
Length of Day
12h 41m
Waning Gibbous, 67% of the Moon is Illuminated
Apr 1
Waning Gibbous
Apr 2
Last Quarter
Apr 10
New
Apr 18
First Quarter
Apr 25
Full

Hourly Weather History & Observations

Time (CDT) Temp. Windchill Dew Point Humidity Pressure Visibility Wind Dir Wind Speed Gust Speed Precip Events Conditions
12:05 AM 33.8 °F 24.3 °F 30.2 °F 87% 30.07 in 2.0 mi North 13.8 mph - 0.01 in Snow Light Snow
12:15 AM 33.8 °F 23.5 °F 30.2 °F 87% 30.07 in 1.5 mi North 16.1 mph - 0.01 in Snow Light Snow
12:35 AM 32.0 °F 20.8 °F 30.2 °F 93% 30.08 in 3.0 mi North 17.3 mph 23.0 mph 0.02 in Snow Light Snow
12:44 AM 32.0 °F 22.5 °F 28.4 °F 87% 30.09 in 4.0 mi North 12.7 mph 23.0 mph 0.02 in Snow Light Snow
12:53 AM 32.0 °F 21.6 °F 28.9 °F 88% 30.11 in 4.0 mi North 15.0 mph - 0.02 in Snow Light Snow
1:22 AM 30.2 °F 19.3 °F 26.6 °F 86% 30.10 in 2.5 mi North 15.0 mph - 0.00 in Snow Light Snow
1:41 AM 30.2 °F 19.8 °F 26.6 °F 86% 30.10 in 5.0 mi North 13.8 mph - 0.00 in Snow Light Snow
1:53 AM 30.0 °F 19.1 °F 26.1 °F 85% 30.13 in 7.0 mi North 15.0 mph 23.0 mph 0.00 in Snow Light Snow
2:10 AM 30.2 °F 20.8 °F 26.6 °F 86% 30.11 in 2.5 mi North 11.5 mph - 0.00 in Snow Light Snow
2:20 AM 30.2 °F 21.3 °F 26.6 °F 86% 30.12 in 2.5 mi North 10.4 mph - 0.00 in Snow Light Snow
2:28 AM 30.2 °F 22.6 °F 26.6 °F 86% 30.12 in 6.0 mi North 8.1 mph - 0.00 in Snow Light Snow
2:53 AM 30.0 °F 20.5 °F 25.0 °F 82% 30.14 in 10.0 mi North 11.5 mph - 0.00 in   Overcast
3:53 AM 28.0 °F 18.6 °F 21.9 °F 78% 30.16 in 10.0 mi North 10.4 mph - N/A   Partly Cloudy
4:53 AM 25.0 °F 16.3 °F 19.0 °F 78% 30.18 in 10.0 mi North 8.1 mph 19.6 mph N/A   Clear
5:53 AM 24.1 °F 12.5 °F 18.0 °F 77% 30.21 in 10.0 mi North 12.7 mph - N/A   Clear
6:53 AM 23.0 °F 12.4 °F 17.1 °F 78% 30.24 in 10.0 mi North 10.4 mph - N/A   Clear
7:53 AM 23.0 °F 10.6 °F 17.1 °F 78% 30.27 in 10.0 mi North 13.8 mph 19.6 mph N/A   Clear
8:53 AM 25.0 °F 13.1 °F 17.1 °F 72% 30.28 in 10.0 mi North 13.8 mph 21.9 mph N/A   Clear
9:53 AM 28.0 °F 17.5 °F 19.0 °F 69% 30.30 in 10.0 mi NW 12.7 mph - N/A   Clear
10:53 AM 30.0 °F 20.5 °F 19.9 °F 66% 30.30 in 10.0 mi North 11.5 mph 18.4 mph N/A   Clear
11:53 AM 34.0 °F 25.5 °F 21.0 °F 59% 30.31 in 10.0 mi NNW 11.5 mph - N/A   Clear
12:53 PM 37.0 °F 29.3 °F 19.0 °F 48% 30.30 in 10.0 mi North 11.5 mph 19.6 mph N/A   Clear
1:53 PM 37.9 °F 29.6 °F 18.0 °F 45% 30.29 in 10.0 mi NW 13.8 mph - N/A   Clear
2:53 PM 39.9 °F 33.4 °F 17.1 °F 40% 30.28 in 10.0 mi North 10.4 mph - N/A   Clear
3:53 PM 41.0 °F 34.3 °F 17.1 °F 38% 30.27 in 10.0 mi North 11.5 mph 19.6 mph N/A   Clear
4:53 PM 41.0 °F 33.9 °F 14.0 °F 33% 30.26 in 10.0 mi North 12.7 mph 16.1 mph N/A   Clear
5:53 PM 41.0 °F 34.7 °F 15.1 °F 35% 30.26 in 10.0 mi North 10.4 mph - N/A   Clear
6:53 PM 37.9 °F 30.5 °F 14.0 °F 38% 30.27 in 10.0 mi North 11.5 mph - N/A   Clear
7:53 PM 34.0 °F 27.2 °F 15.1 °F 46% 30.27 in 10.0 mi North 8.1 mph - N/A   Clear
8:53 PM 30.9 °F 25.2 °F 15.1 °F 52% 30.29 in 10.0 mi North 5.8 mph - N/A   Clear
9:53 PM 28.9 °F 21.9 °F 16.0 °F 58% 30.31 in 10.0 mi North 6.9 mph - N/A   Clear
10:53 PM 27.0 °F 19.5 °F 16.0 °F 63% 30.32 in 10.0 mi North 6.9 mph - N/A   Clear
11:53 PM 26.1 °F 21.9 °F 16.0 °F 66% 30.33 in 10.0 mi NNW 3.5 mph - N/A   Clear